This demonstration page uses our WeatherBlox Daily Observations layout. Learn more.

Left ArrowRight Arrow

Hourly Observations for August 28, 2019

Temp ( °F °C ) Dew Point ( °F °C ) Humidity (%) Winds ( mph kmh ) Pressure ( in mb ) Visibility ( mi km ) Precip ( " mm )
12:53 am 00:53 Partly Cloudy 84 28.9 69 20.6 61 61 ESE 8 13 29.85 1011 10 16 0.00 0.00
1:53 am 01:53 Partly Cloudy 83 28.3 69 20.6 63 63 SE 5 7 29.88 1012 10 16 0.00 0.00
2:53 am 02:53 Mostly Clear 82 27.8 66 18.9 58 58 S 5 7 29.88 1012 10 16 0.00 0.00
3:53 am 03:53 Clear 80 26.7 62 16.7 54 54 SE 8 13 29.86 1011 10 16 0.00 0.00
4:53 am 04:53 Clear 80 26.7 68 20 67 67 E 10 17 29.88 1012 10 16 0.00 0.00
5:53 am 05:53 Clear 79 26.1 67 19.4 67 67 E 16 26 29.91 1013 10 16 0.00 0.00
6:53 am 06:53 Clear 78 25.6 58 14.4 50 50 ESE 14 22 29.91 1013 10 16 0.00 0.00
7:53 am 07:53 Sunny 77 25 60 15.6 56 56 ESE 8 13 29.94 1014 10 16 0.00 0.00
8:53 am 08:53 Sunny 76 24.4 66 18.9 72 72 E 12 19 30.00 1016 10 16 0.00 0.00
9:53 am 09:53 Mostly Sunny 77 25 67 19.4 71 71 E 9 15 30.00 1016 10 16 0.00 0.00
10:15 am 10:15 Mostly Cloudy 78 25.6 67 19.4 69 69 ESE 8 13 29.97 1015 10 16 0.00 0.00
10:53 am 10:53 Cloudy 78 25.6 66 18.9 67 67 E 8 13 30.01 1016 10 16 0.00 0.00
11:53 am 11:53 Mostly Cloudy 83 28.3 66 18.9 57 57 E 10 17 30.02 1017 10 16 0.00 0.00
12:18 pm 12:18 Partly Cloudy 84 28.9 67 19.4 57 57 E 10 17 29.96 1015 10 16 0.00 0.00
12:29 pm 12:29 Mostly Cloudy 85 29.4 67 19.4 55 55 E 9 15 29.96 1014 10 16 0.00 0.00
12:38 pm 12:38 Partly Cloudy 84 28.9 67 19.4 57 57 E 14 22 29.95 1014 10 16 0.00 0.00
12:53 pm 12:53 Mostly Sunny 85 29.4 67 19.4 55 55 E 14 22 29.99 1016 10 16 0.00 0.00
1:53 pm 13:53 Sunny 89 31.7 66 18.9 47 47 S 10 17 29.96 1014 10 16 0.00 0.00
2:53 pm 14:53 Sunny 93 33.9 64 17.8 38 38 SSE 10 17 29.92 1013 10 16 0.00 0.00
3:53 pm 15:53 Sunny 92 33.3 64 17.8 40 40 S 12 19 29.90 1013 10 16 0.00 0.00
4:53 pm 16:53 Sunny 94 34.4 64 17.8 37 37 SE 13 20 29.87 1012 10 16 0.00 0.00
5:53 pm 17:53 Sunny 95 35 62 16.7 34 34 SSE 8 13 29.85 1011 10 16 0.00 0.00
6:53 pm 18:53 Sunny 94 34.4 61 16.1 33 33 S 9 15 29.83 1010 10 16 0.00 0.00
7:53 pm 19:53 Sunny 92 33.3 62 16.7 37 37 SE 8 13 29.84 1010 10 16 0.00 0.00
8:53 pm 20:53 Clear 90 32.2 62 16.7 39 39 ESE 7 11 29.85 1011 10 16 0.00 0.00
9:53 pm 21:53 Clear 87 30.6 61 16.1 42 42 SE 7 11 29.88 1012 10 16 0.00 0.00
10:53 pm 22:53 Clear 86 30 60 15.6 42 42 SE 8 13 29.90 1012 10 16 0.00 0.00
11:53 pm 23:53 Clear 84 28.9 61 16.1 46 46 SSE 9 15 29.91 1013 10 16 0.00 0.00

Powered by AerisWeather